Location: Trebic
(49.2170°N, 15.8830°E)
Time: 07:36:40
(UTC+02:00)

Transit 4A - Pass Details

Date: 30 August 2019
Orbit: 865 x 980 km, 66.8° (Epoch: 21 September)

Event Time Altitude Azimuth Distance (km) Brightness Sun altitude
Rises 15:50:31 0° 163° (SSE) 3,662 11.2 36.0°
Reaches altitude 10° 15:53:49 10° 147° (SSE) 2,724 10.4 35.5°
Maximum altitude 15:58:06 19° 104° (ESE) 2,139 9.6 34.9°
Drops below altitude 10° 16:02:22 10° 62° (ENE) 2,727 9.9 34.3°
Sets 16:05:40 0° 46° (NE) 3,668 10.5 33.9°
